Погода в Рамальо

Аргентина     33°29′52″S   60°04′02″W
темп.,
°C
ветер,
м/с
пор.,
м/с
влажн.,
%
обл.,
%
осадки,
мм/ч
давл.,
гПа
погр.,
м
26 июля, пн
пн2600:00+10ююв28840 0.0 1015170
03:00+9ю410810 0.0 1015230
06:00+7ю310812 0.0 1016226
09:00+8ююв2774100 0.0 1018189
12:00+14ю46470 0.0 1020688
15:00+16ююз57390 0.0 10191438
18:00+12ююз38541 0.0 1020180
21:00+9ююз412570 0.0 1023360
27 июля, вт
вт2700:00+7юз514520 0.0 1025483
03:00+5юз514450 0.0 1026512
06:00+3зюз312540 0.0 1026324
09:00+4зюз412510 0.0 1027415
12:00+10юз612340 0.0 10271564
15:00+13зюз611295 0.0 10242079
18:00+10зюз494182 0.0 1024243
21:00+6юз311525 0.0 1025253
28 июля, ср
ср2800:00+5зюз413605 0.0 1026339
03:00+4юз312702 0.0 1027412
06:00+3юз412795 0.0 1027437
09:00+4юз412811 0.0 1029500
12:00+9ююз58534 0.0 10301168
15:00+11ююз574320 0.0 10291929
18:00+8юз34555 0.0 102975
21:00+5ююз22625 0.0 103021
29 июля, чт
чт2900:00+4ю11680 0.0 103010
03:00+3с00740 0.0 103010
06:00+2ссз11780 0.0 102910
09:00+4с12710 0.0 102971
12:00+11ссз34440 0.0 1029762
15:00+13ссз33360 0.0 10271197
18:00+10ссв22500 0.0 102615
21:00+6ссв35650 0.0 102775
30 июля, пт
пт3000:00+5с37700 0.0 1027116
03:00+4ссв39740 0.0 1027167
06:00+3ссв39800 0.0 1026179
09:00+5ссв311760 0.0 1026279
12:00+12с58450 0.0 1026733
15:00+15с57350 0.0 10231121
18:00+12ссв36490 0.0 1022105
21:00+7ссв39670 0.0 1023150